sat.trackr.live / text

‹ back to catalog

STARLINK-35203

NORAD 65498 · 2025-198G

PAYLOAD ACTIVE UNKNOWN

§ Identity

Operator
Country
US
Launch date
2025-09-05
Launch site
AFETR
Launch vehicle
Mass (kg)
RCS (m²)

Purposes: comms

External: N2YO · Heavens-Above · Gunter

§ Orbital elements

Epoch: 2026-05-24T19:58:57.802080Z

Period
94.10 min
Inclination
53.1599°
Eccentricity
0.0001212
Mean motion
15.30212395 rev/d
Perigee alt
474.3 km
Apogee alt
476.0 km
Semi-major
6,853.3 km
B*
6.0322e-4
RAAN
277.6255°
Arg perigee
89.4533°
Mean anomaly
270.6607°
Rev number
4,027

§ Raw data

STARLINK-352031 65498U 25198G   26144.83261345  .00017556  00000+0  60322-3 0  99952 65498  53.1599 277.6255 0001212  89.4533 270.6607 15.30212395 40270

JSON: /api/v1/satellites/65498 · /tle

For live sub-satellite position, see the globe view (requires WebGL).

§ Visibility from observer

Set your observer location to see the next 7 days of passes ≥ 10°. The values pass through the URL so the page stays shareable.

No JS? Fill the form by hand. The geolocation button needs JavaScript.